Weather History for Lompoc, CA

Change the Weather History Date:

Tuesday, November 26, 2013

  Actual Average Record
Temperature  
Mean Temperature 79 °F -  
Max Temperature 116 °F 69 °F 116 °F (2013)
Min Temperature 42 °F 41 °F 30 °F (2010)
Cooling Degree Days 14    
Growing Degree Days 29 (Base 50)    
Moisture  
Dew Point 42 °F    
Average Humidity 55    
Maximum Humidity 82    
Minimum Humidity 9    
Precipitation  
Precipitation 0.00 in - - ()
Sea Level Pressure  
Sea Level Pressure 30.13 in    
Wind  
Wind Speed 5 mph (East)    
Max Wind Speed 9 mph    
Max Gust Speed -    
Visibility 10 miles    
Events      
Averages and records for this station are not official NWS values.
T = Trace of Precipitation, MM = Missing Value Source: NWS Daily Summary

Daily Weather History Graph

Daily Weather History Graph

Search for Another Location

Airport:

Trip Planner

Search our weather history database for the weather conditions in past years. The results will help you decide how hot, cold, wet, or windy it might be!

Date:

Astronomy

Nov. 26, 2013 Rise Set
Actual Time 6:46 AM PST 4:51 PM PST
Civil Twilight 6:19 AM PST 5:19 PM PST
Nautical Twilight 5:48 AM PST 5:50 PM PST
Astronomical Twilight 5:17 AM PST 6:20 PM PST
Moon 12:10 AM PST (11/26) 12:47 PM PST (11/26)
Length of Visible Light 11h 00m
Length of Day
10h 05m
Last Quarter, 40% of the Moon is Illuminated
Nov 26
Last Quarter
Dec 2
New
Dec 9
First Quarter
Dec 17
Full
Dec 25
Last Quarter

Hourly Weather History & Observations

Time (PST) Temp. Windchill Dew Point Humidity Pressure Visibility Wind Dir Wind Speed Gust Speed Precip Events Conditions
12:15 AM 60.8 °F - 39.2 °F 45% 30.21 in 10.0 mi East 4.6 mph - N/A   Clear
12:35 AM 73.4 °F - 37.4 °F 27% 30.21 in 10.0 mi East 5.8 mph - N/A   Clear
12:55 AM 44.6 °F 42.2 °F 39.2 °F 81% 30.20 in 10.0 mi East 4.6 mph - N/A   Clear
1:15 AM 64.4 °F - 39.2 °F 40% 30.19 in 10.0 mi ESE 5.8 mph - N/A   Clear
1:35 AM 51.8 °F - 39.2 °F 62% 30.20 in 10.0 mi ENE 6.9 mph - N/A   Clear
1:55 AM 44.6 °F 40.7 °F 39.2 °F 81% 30.19 in 10.0 mi East 6.9 mph - N/A   Clear
2:15 AM 44.6 °F 40.7 °F 39.2 °F 81% 30.19 in 10.0 mi ENE 6.9 mph - N/A   Clear
2:35 AM 44.6 °F 40.7 °F 39.2 °F 81% 30.19 in 10.0 mi East 6.9 mph - N/A   Clear
2:55 AM 46.4 °F 43.5 °F 39.2 °F 76% 30.19 in 10.0 mi East 5.8 mph - N/A   Clear
3:15 AM 46.4 °F 42.4 °F 39.2 °F 76% 30.18 in 10.0 mi East 8.1 mph - N/A   Clear
3:35 AM 46.4 °F 42.4 °F 37.4 °F 71% 30.18 in 10.0 mi East 8.1 mph - N/A   Clear
3:55 AM 46.4 °F 42.9 °F 37.4 °F 71% 30.18 in 10.0 mi ENE 6.9 mph - N/A   Clear
4:15 AM 44.6 °F 40.2 °F 37.4 °F 76% 30.17 in 10.0 mi East 8.1 mph - N/A   Clear
4:35 AM 44.6 °F 39.7 °F 37.4 °F 76% 30.16 in 10.0 mi East 9.2 mph - N/A   Clear
4:55 AM 44.6 °F 40.7 °F 37.4 °F 76% 30.16 in 10.0 mi ENE 6.9 mph - N/A   Clear
5:15 AM 44.6 °F 42.2 °F 37.4 °F 76% 30.17 in 10.0 mi ENE 4.6 mph - N/A   Clear
5:35 AM 46.4 °F - 35.6 °F 66% 30.17 in 10.0 mi Calm Calm - N/A   Clear
5:55 AM 44.6 °F 43.1 °F 35.6 °F 71% 30.18 in 10.0 mi ENE 3.5 mph - N/A   Clear
6:15 AM 42.8 °F - 35.6 °F 76% 30.18 in 10.0 mi Calm Calm - N/A   Clear
6:35 AM 42.8 °F 41.1 °F 35.6 °F 76% 30.19 in 10.0 mi East 3.5 mph - N/A   Clear
6:55 AM 44.6 °F 42.2 °F 35.6 °F 71% 30.19 in 10.0 mi East 4.6 mph - N/A   Clear
7:15 AM 42.8 °F - 35.6 °F 76% 30.19 in 10.0 mi Calm Calm - N/A   Clear
7:35 AM 46.4 °F 44.3 °F 37.4 °F 71% 30.19 in 10.0 mi East 4.6 mph - N/A   Clear
7:55 AM 46.4 °F 42.9 °F 37.4 °F 71% 30.19 in 10.0 mi East 6.9 mph - N/A   Clear
8:15 AM 48.2 °F - 37.4 °F 66% 30.20 in 10.0 mi Calm Calm - N/A   Clear
8:35 AM 51.8 °F - 39.2 °F 62% 30.20 in 10.0 mi Calm Calm - N/A   Clear
8:55 AM 55.4 °F - 39.2 °F 54% 30.19 in 10.0 mi Calm Calm - N/A   Clear
9:15 AM 57.2 °F - 39.2 °F 51% 30.20 in 10.0 mi Calm Calm - N/A   Clear
9:35 AM 60.8 °F - 39.2 °F 45% 30.19 in 10.0 mi ENE 3.5 mph - N/A   Clear
9:55 AM 62.6 °F - 41.0 °F 45% 30.19 in 10.0 mi Calm Calm - N/A   Clear
10:15 AM 64.4 °F - 41.0 °F 42% 30.18 in 10.0 mi Calm Calm - N/A   Clear
10:35 AM 66.2 °F - 39.2 °F 37% 30.18 in 10.0 mi Calm Calm - N/A   Clear
10:55 AM 68.0 °F - 39.2 °F 35% 30.17 in 10.0 mi Calm Calm - N/A   Clear
11:15 AM 69.8 °F - 39.2 °F 33% 30.15 in 10.0 mi Calm Calm - N/A   Clear
11:35 AM 71.6 °F - 39.2 °F 31% 30.15 in 10.0 mi Calm Calm - N/A   Clear
11:55 AM 73.4 °F - 42.8 °F 33% 30.13 in 10.0 mi WSW 4.6 mph - N/A   Clear
12:15 PM 71.6 °F - 42.8 °F 35% 30.13 in 10.0 mi WSW 5.8 mph - N/A   Clear
12:35 PM 78.8 °F - 41.0 °F 26% 30.12 in 10.0 mi WSW 5.8 mph - N/A   Clear
12:55 PM 75.2 °F - 41.0 °F 29% 30.11 in 10.0 mi West 8.1 mph - N/A   Clear
1:15 PM 73.4 °F - 41.0 °F 31% 30.11 in 10.0 mi West 6.9 mph - N/A   Clear
1:35 PM 73.4 °F - 42.8 °F 33% 30.10 in 10.0 mi West 3.5 mph - N/A   Clear
1:55 PM 69.8 °F - 42.8 °F 38% 30.09 in 10.0 mi WSW 5.8 mph - N/A   Clear
2:15 PM 71.6 °F - 46.4 °F 41% 30.08 in 10.0 mi WSW 5.8 mph - N/A   Clear
2:35 PM 71.6 °F - 46.4 °F 41% 30.08 in 10.0 mi West 5.8 mph - N/A   Clear
2:55 PM 73.4 °F - 46.4 °F 38% 30.08 in 10.0 mi West 5.8 mph - N/A   Clear
3:15 PM 78.8 °F - 46.4 °F 32% 30.08 in 10.0 mi WSW 5.8 mph - N/A   Clear
3:35 PM 82.4 °F - 48.2 °F 30% 30.07 in 10.0 mi WSW 8.1 mph - N/A   Clear
3:55 PM 78.8 °F - 48.2 °F 34% 30.07 in 10.0 mi West 6.9 mph - N/A   Clear
4:15 PM 80.6 °F - 48.2 °F 32% 30.07 in 10.0 mi West 6.9 mph - N/A   Clear
4:35 PM 78.8 °F - 48.2 °F 34% 30.07 in 10.0 mi West 4.6 mph - N/A   Clear
4:55 PM 78.8 °F - 48.2 °F 34% 30.07 in 10.0 mi WSW 3.5 mph - N/A   Clear
5:15 PM 78.8 °F - 48.2 °F 34% 30.07 in 10.0 mi Calm Calm - N/A   Clear
5:35 PM 75.2 °F - 48.2 °F 38% 30.07 in 10.0 mi NE 3.5 mph - N/A   Clear
5:55 PM 78.8 °F - 46.4 °F 32% 30.07 in 10.0 mi Calm Calm - N/A   Clear
6:15 PM 78.8 °F - 44.6 °F 30% 30.07 in 10.0 mi Calm Calm - N/A   Clear
6:35 PM 78.8 °F - 44.6 °F 30% 30.08 in 10.0 mi West 3.5 mph - N/A   Clear
6:55 PM 116.6 °F - 44.6 °F 9% 30.08 in 10.0 mi WSW 3.5 mph - N/A   Clear
7:15 PM 60.8 °F - 46.4 °F 59% 30.08 in 10.0 mi Calm Calm - N/A   Clear
7:55 PM 55.4 °F - 46.4 °F 72% 30.09 in 10.0 mi Calm Calm - N/A   Clear
8:15 PM 53.6 °F - 46.4 °F 77% 30.09 in 10.0 mi SSW 3.5 mph - N/A   Clear
8:35 PM 53.6 °F - 44.6 °F 72% 30.09 in 10.0 mi Calm Calm - N/A   Clear
8:55 PM 51.8 °F - 44.6 °F 76% 30.09 in 10.0 mi East 4.6 mph - N/A   Clear
9:15 PM 51.8 °F - 44.6 °F 76% 30.09 in 10.0 mi East 3.5 mph - N/A   Clear
9:35 PM 51.8 °F - 44.6 °F 76% 30.08 in 10.0 mi East 4.6 mph - N/A   Clear
9:55 PM 51.8 °F - 44.6 °F 76% 30.08 in 10.0 mi East 3.5 mph - N/A   Clear
10:15 PM 50.0 °F - 42.8 °F 76% 30.07 in 10.0 mi ENE 3.5 mph - N/A   Clear
10:35 PM 50.0 °F - 42.8 °F 76% 30.07 in 10.0 mi East 3.5 mph - N/A   Clear
10:55 PM 50.0 °F - 42.8 °F 76% 30.07 in 10.0 mi East 4.6 mph - N/A   Clear
11:15 PM 48.2 °F - 42.8 °F 82% 30.07 in 10.0 mi ENE 5.8 mph - N/A   Clear
11:35 PM 48.2 °F - 41.0 °F 76% 30.06 in 10.0 mi East 6.9 mph - N/A   Clear
11:55 PM 48.2 °F - 41.0 °F 76% 30.05 in 10.0 mi East 6.9 mph - N/A   Clear